Weather observations for the past three days for
McKinley Park, McKinley National Park Airport
Metric (Imperial)
Date Time (akdt) Wind (kph) Vis. (km) Weather Sky Cond. Temperature (ºC) Relative Humidity Wind Chill (°C) Heat Index (°C) Pressure Precipitation (cm)
Air Dwpt 6 hour altimeter (cm) sea level (mb) 1 hr 3 hr 6 hr
Max. Min.
21 08:56 Calm 16.09 Fair CLR 12.2 7.2 72% 75.97 1013.5
21 07:56 Calm 16.09 Fair CLR 9.4 6.1 80% 76 1014.0
21 06:56 Calm 16.09 Mostly Cloudy BKN095 7.2 5.6 90% 76 1014.3
21 05:56 Calm 16.09 Fair CLR 5 4.4 96% 76.02 1014.3
21 04:56 Calm 16.09 Fair CLR 5.6 4.4 92% 76.02 1014.2
21 03:56 Calm 16.09 Fair CLR 6.7 5 14.4 6.7 89% 76 1014.0
21 02:56 Calm 16.09 A Few Clouds FEW110 8.3 5.6 83% 76 1013.8
21 01:56 Calm 16.09 A Few Clouds FEW110 9.4 7.2 86% 75.97 1013.3
21 00:56 SW 7 16.09 Overcast OVC110 11.7 8.3 80% 75.97 1013.1
20 23:56 Calm 16.09 Overcast OVC110 13.3 8.3 72% 75.97 1013.2
20 22:56 Calm 16.09 Overcast OVC120 13.3 8.9 75% 75.97 1013.4
20 21:56 Calm 16.09 Overcast BKN100 OVC120 13.9 8.9 21.1 13.9 72% 75.97 1013.2 0.41
20 20:56 SE 11 16.09 Overcast OVC090 13.9 9.4 74% 75.97 1013.6
20 19:56 Calm 16.09 Overcast OVC095 15 8.9 67% 75.97 1013.7
20 18:56 Vrbl 9 16.09 Light Rain FEW013 SCT050 OVC070 14.4 11.1 81% 75.95 1013.5 0.41 0.41
20 17:56 N 13 16.09 Overcast OVC075 21.1 6.7 39% 75.9 1012.5
20 16:56 N 9 16.09 Overcast OVC095 20.6 6.7 41% 75.9 1012.6
20 15:56 N 11 16.09 A Few Clouds FEW080 18.3 10.6 22.8 15.6 61% 75.92 1012.9 0.15 0.15
20 14:56 N 13 16.09 Partly Cloudy SCT100 20.6 6.7 41% 75.92 1012.7
20 13:56 N 13 16.09 Fair CLR 21.1 6.1 38% 75.97 1013.3
20 12:56 N 17 16.09 Fair CLR 21.1 7.2 41% 76.02 1014.0
20 11:56 NE 13 16.09 Fair CLR 20 6.7 42% 76.07 1014.4
20 10:56 Vrbl 11 16.09 Fair CLR 18.3 6.7 47% 76.12 1015.2
20 09:56 N 17 16.09 Fair CLR 17.2 5.6 17.8 6.7 47% 76.17 1015.8
20 08:56 Calm 16.09 A Few Clouds FEW095 13.9 5.6 58% 76.23 1016.6
20 07:56 Calm 16.09 Partly Cloudy SCT100 10.6 4.4 66% 76.25 1017.2
20 06:56 Calm 16.09 Fair CLR 7.8 3.9 77% 76.28 1017.5
20 05:56 Calm 16.09 Fair CLR 6.7 2.8 76% 76.28 1017.7
20 04:56 Calm 16.09 Fair CLR 7.2 3.3 77% 76.28 1017.4
20 03:56 Calm 16.09 Partly Cloudy SCT100 8.3 3.9 16.1 8.3 74% 76.28 1017.4
20 02:56 Vrbl 7 16.09 Partly Cloudy SCT120 10 3.9 66% 9 76.23 1016.7
20 01:56 SW 6 16.09 Overcast OVC120 10 3.9 66% 76.2 1016.6
20 00:56 Calm 16.09 Mostly Cloudy BKN110 11.7 4.4 61% 76.2 1016.4
19 23:56 Vrbl 6 16.09 A Few Clouds FEW120 14.4 4.4 51% 76.17 1016.0
19 22:56 N 6 16.09 Mostly Cloudy BKN075 15.6 3.9 46% 76.17 1015.9
19 21:56 Vrbl 6 16.09 Mostly Cloudy BKN070 BKN090 16.1 4.4 22.2 16.1 46% 76.17 1016.0
19 20:56 N 15 14.48 Fair CLR 17.2 6.1 48% 76.1 1015.0
19 19:56 N 13 G 26 16.09 Fair CLR 18.9 4.4 39% 76.05 1014.5
19 18:56 N 15 16.09 A Few Clouds FEW100 20.6 3.9 33% 76.05 1014.4
19 17:56 E 15 16.09 Fair CLR 22.2 0.6 24% 76.02 1014.2
19 16:56 Vrbl 6 16.09 Fair CLR 22.2 -1.1 21% 76.05 1014.6
19 15:56 Vrbl 9 16.09 Fair CLR 21.7 -2.8 22.2 15 19% 76.07 1015.0
19 14:56 Vrbl 11 16.09 Fair CLR 21.1 -2.2 21% 76.1 1015.2
19 13:56 Vrbl 6 16.09 A Few Clouds FEW100 19.4 1.1 30% 76.15 1015.9
19 12:56 Calm 16.09 Fair CLR 18.3 3.3 37% 76.17 1016.3
19 11:56 Vrbl 6 16.09 Fair CLR 17.8 3.9 40% 76.2 1016.5
19 10:56 Vrbl 6 16.09 Fair CLR 16.7 3.9 43% 76.23 1016.5
19 09:56 Calm 16.09 Fair CLR 15 4.4 15.6 6.7 49% 76.25 1016.9
19 08:56 Calm 16.09 Fair CLR 13.3 3.9 53% 76.28 1017.3
19 07:56 Calm 16.09 Fair CLR 11.1 3.9 61% 76.3 1017.6
19 06:56 SW 6 16.09 Fair CLR 8.3 3.9 74% 76.3 1017.7
19 05:56 SW 6 16.09 Fair CLR 7.2 3.3 77% 76.28 1017.6
19 04:56 Calm 16.09 Partly Cloudy FEW075 SCT090 7.2 3.3 77% 76.25 1017.2
19 03:56 Calm 16.09 Partly Cloudy SCT070 6.7 2.8 17.8 6.7 76% 76.2 1016.5
19 02:56 SW 6 16.09 Fair CLR 7.8 3.3 73% 76.15 1015.9
19 01:56 SW 6 16.09 Fair CLR 8.9 3.9 71% 76.12 1015.4
19 00:56 SW 6 16.09 Fair CLR 10 4.4 68% 76.07 1014.7
18 23:56 Vrbl 6 16.09 Fair CLR 12.2 5 62% 76.02 1014.0
18 22:56 Vrbl 6 16.09 Fair CLR 16.7 4.4 44% 76 1013.2
18 21:56 E 6 16.09 Fair CLR 17.8 4.4 22.2 17.8 41% 75.95 1012.8
18 20:56 Vrbl 9 16.09 Fair CLR 20 3.3 33% 75.92 1012.4
18 19:56 SE 9 16.09 Fair CLR 20.6 1.7 29% 75.9 1012.1
18 18:56 SE 9 16.09 Fair CLR 21.1 0 25% 75.9 1012.0
18 17:56 Vrbl 7 16.09 Fair CLR 21.7 0 24% 75.9 1012.4
18 16:56 S 13 16.09 Fair CLR 21.7 0 24% 75.95 1012.9
18 15:56 S 13 16.09 Fair CLR 21.7 0.6 22.2 17.2 25% 75.97 1013.1
18 14:56 S 13 G 26 16.09 Fair CLR 21.7 0.6 25% 75.97 1013.2
18 13:56 S 17 G 28 16.09 Fair CLR 21.1 2.2 29% 76 1013.6
18 12:56 S 13 16.09 Fair CLR 20.6 3.3 32% 76.02 1013.8
18 11:56 SE 13 16.09 Fair CLR 19.4 5.6 41% 76.05 1014.0
18 10:56 SE 11 16.09 Fair CLR 18.3 6.1 45% 76.07 1014.5
18 09:56 SE 9 16.09 Fair CLR 17.2 6.7 17.2 8.9 50% 76.1 1014.7
Date Time (akdt) Wind (kph) Vis. (km) Weather Sky Cond. Air Dwpt Max. Min. Relative Humidity Wind Chill (°C) Heat Index (°C) altimeter (cm) sea level (mb) 1 hr 3 hr 6 hr
6 hour
Temperature (ºC) Pressure Precipitation (cm)